• In Uzbekistan
  • List of Countries
  • For 7 days
  • Water Temperature
  • Satellite Maps
  • Weather Map
  • Weather Widgets
  • user-avatar
    Login

    Hourly Weather Monastir

    Today, 10 December, Monday

    Time Temperature Precipitation Wind Pressure Humidity
    00:00 +16°C° 0 mm 3 mps 763 mmHg 55%
    01:00 +14°C° 0 mm 3 mps 762 mmHg 56%
    02:00 +14°C° 0 mm 4 mps 762 mmHg 55%
    03:00 +14°C° 0 mm 4 mps 762 mmHg 55%
    04:00 +14°C° 0 mm 5 mps 762 mmHg 55%
    05:00 +14°C° 0 mm 5 mps 762 mmHg 58%
    06:00 +14°C° 0 mm 5 mps 762 mmHg 62%
    07:00 +13°C° 0 mm 6 mps 762 mmHg 65%
    08:00 +15°C° 0 mm 7 mps 762 mmHg 61%
    09:00 +16°C° 0 mm 8 mps 762 mmHg 57%
    10:00 +17°C° 0 mm 9 mps 762 mmHg 54%
    11:00 +18°C° 0 mm 9 mps 762 mmHg 48%
    12:00 +19°C° 0 mm 10 mps 762 mmHg 43%
    13:00 +19°C° 0 mm 10 mps 762 mmHg 38%
    14:00 +19°C° 0 mm 10 mps 762 mmHg 38%
    15:00 +19°C° 0 mm 10 mps 762 mmHg 39%
    16:00 +19°C° 0 mm 10 mps 762 mmHg 40%
    17:00 +17°C° 0 mm 9 mps 762 mmHg 45%
    18:00 +16°C° 0 mm 8 mps 762 mmHg 50%
    19:00 +15°C° 0 mm 7 mps 762 mmHg 54%
    20:00 +15°C° 0 mm 6 mps 762 mmHg 58%
    21:00 +14°C° 0 mm 6 mps 762 mmHg 61%
    22:00 +13°C° 0 mm 5 mps 763 mmHg 64%
    23:00 +13°C° 0 mm 5 mps 763 mmHg 65%

    Tomorrow, 11 December, Tuesday

    Time Temperature Precipitation Wind Pressure Humidity
    00:00 +13°C° 0 mm 5 mps 763 mmHg 67%
    01:00 +13°C° 0 mm 5 mps 763 mmHg 68%
    02:00 +12°C° 0 mm 5 mps 762 mmHg 69%
    03:00 +12°C° 0 mm 5 mps 762 mmHg 69%
    04:00 +12°C° 0 mm 5 mps 762 mmHg 69%
    05:00 +12°C° 0 mm 5 mps 762 mmHg 69%
    06:00 +12°C° 0 mm 5 mps 762 mmHg 69%
    07:00 +11°C° 0 mm 4 mps 762 mmHg 69%
    08:00 +13°C° 0 mm 5 mps 762 mmHg 63%
    09:00 +14°C° 0 mm 5 mps 762 mmHg 58%
    10:00 +15°C° 0 mm 5 mps 762 mmHg 53%
    11:00 +17°C° 0 mm 4 mps 762 mmHg 49%
    12:00 +18°C° 0 mm 4 mps 762 mmHg 45%
    13:00 +19°C° 0 mm 4 mps 761 mmHg 41%
    14:00 +19°C° 0 mm 3 mps 761 mmHg 40%
    15:00 +19°C° 0 mm 3 mps 760 mmHg 38%
    16:00 +20°C° 0 mm 2 mps 760 mmHg 36%
    17:00 +19°C° 0 mm 2 mps 760 mmHg 39%
    18:00 +18°C° 0 mm 2 mps 760 mmHg 42%
    19:00 +17°C° 0 mm 2 mps 760 mmHg 46%
    20:00 +16°C° 0 mm 2 mps 760 mmHg 48%
    21:00 +16°C° 0 mm 2 mps 761 mmHg 50%
    22:00 +15°C° 0 mm 2 mps 761 mmHg 52%
    23:00 +15°C° 0 mm 2 mps 760 mmHg 53%

    Day after tomorrow, 12 December, Wednesday

    Time Temperature Precipitation Wind Pressure Humidity
    00:00 +14°C° 0 mm 2 mps 760 mmHg 55%
    01:00 +14°C° 0 mm 2 mps 760 mmHg 57%
    02:00 +13°C° 0 mm 2 mps 760 mmHg 59%
    03:00 +13°C° 0 mm 2 mps 760 mmHg 62%
    04:00 +13°C° 0 mm 2 mps 760 mmHg 64%
    05:00 +13°C° 0 mm 2 mps 760 mmHg 68%
    06:00 +12°C° 0 mm 2 mps 760 mmHg 71%
    07:00 +12°C° 0 mm 1 mps 760 mmHg 75%
    08:00 +14°C° 0 mm 1 mps 760 mmHg 70%
    09:00 +15°C° 0 mm 1 mps 760 mmHg 64%
    10:00 +16°C° 0 mm 1 mps 761 mmHg 59%
    11:00 +18°C° 0 mm 1 mps 760 mmHg 53%
    12:00 +19°C° 0 mm 1 mps 760 mmHg 47%
    13:00 +20°C° 0 mm 1 mps 759 mmHg 40%
    14:00 +21°C° 0 mm 1 mps 759 mmHg 38%
    15:00 +21°C° 0 mm 1 mps 759 mmHg 35%
    16:00 +22°C° 0 mm 1 mps 759 mmHg 33%
    17:00 +19°C° 0 mm 2 mps 759 mmHg 36%
    18:00 +18°C° 0 mm 2 mps 759 mmHg 39%
    19:00 +17°C° 0 mm 2 mps 759 mmHg 42%
    20:00 +17°C° 0 mm 2 mps 759 mmHg 43%
    21:00 +16°C° 0 mm 3 mps 759 mmHg 43%
    22:00 +16°C° 0 mm 3 mps 759 mmHg 44%
    23:00 +14°C° 0 mm 3 mps 759 mmHg 44%

    13 December, Thursday

    Time Temperature Precipitation Wind Pressure Humidity
    00:00 +15°C° 0 mm 2 mps 759 mmHg 44%
    01:00 +14°C° 0 mm 2 mps 759 mmHg 44%
    02:00 +14°C° 0 mm 2 mps 758 mmHg 45%
    03:00 +14°C° 0 mm 2 mps 758 mmHg 45%
    04:00 +13°C° 0 mm 2 mps 758 mmHg 45%
    05:00 +13°C° 0 mm 2 mps 758 mmHg 46%
    06:00 +13°C° 0 mm 2 mps 758 mmHg 46%
    07:00 +13°C° 0 mm 2 mps 758 mmHg 46%
    08:00 +14°C° 0 mm 2 mps 758 mmHg 42%
    09:00 +16°C° 0 mm 2 mps 758 mmHg 38%
    10:00 +17°C° 0 mm 3 mps 758 mmHg 33%
    11:00 +18°C° 0 mm 3 mps 757 mmHg 31%
    12:00 +20°C° 0 mm 4 mps 757 mmHg 28%
    13:00 +21°C° 0 mm 4 mps 756 mmHg 25%
    14:00 +21°C° 0 mm 5 mps 756 mmHg 25%
    15:00 +21°C° 0 mm 5 mps 755 mmHg 25%
    16:00 +22°C° 0 mm 5 mps 755 mmHg 25%
    17:00 +20°C° 0 mm 6 mps 754 mmHg 27%
    18:00 +19°C° 0 mm 6 mps 754 mmHg 29%
    19:00 +16°C° 0 mm 6 mps 754 mmHg 32%
    20:00 +16°C° 0 mm 7 mps 754 mmHg 33%
    21:00 +15°C° 0 mm 7 mps 754 mmHg 34%
    22:00 +15°C° 0 mm 7 mps 754 mmHg 36%
    23:00 +14°C° 0 mm 7 mps 753 mmHg 37%

    14 December, Friday

    Time Temperature Precipitation Wind Pressure Humidity
    00:00 +14°C° 0 mm 7 mps 753 mmHg 38%
    01:00 +12°C° 0 mm 7 mps 752 mmHg 39%
    02:00 +13°C° 0 mm 6 mps 752 mmHg 41%
    03:00 +13°C° 0 mm 6 mps 751 mmHg 42%
    04:00 +11°C° 0 mm 6 mps 751 mmHg 44%
    05:00 +12°C° 0 mm 5 mps 751 mmHg 45%
    06:00 +12°C° 0 mm 5 mps 751 mmHg 46%
    07:00 +12°C° 0 mm 5 mps 751 mmHg 47%
    08:00 +13°C° 0 mm 4 mps 751 mmHg 45%
    09:00 +14°C° 0 mm 4 mps 751 mmHg 42%
    10:00 +14°C° 0 mm 4 mps 752 mmHg 40%
    11:00 +16°C° 0 mm 3 mps 751 mmHg 38%
    12:00 +17°C° 0 mm 3 mps 751 mmHg 36%
    13:00 +17°C° 0 mm 2 mps 751 mmHg 34%
    14:00 +17°C° 0 mm 3 mps 751 mmHg 34%
    15:00 +17°C° 0 mm 3 mps 751 mmHg 35%
    16:00 +17°C° 0 mm 3 mps 751 mmHg 36%
    17:00 +17°C° 0 mm 4 mps 752 mmHg 41%
    18:00 +15°C° 0 mm 4 mps 752 mmHg 47%
    19:00 +14°C° 0 mm 4 mps 753 mmHg 52%
    20:00 +14°C° 0 mm 4 mps 753 mmHg 59%
    21:00 +14°C° 0 mm 5 mps 754 mmHg 66%
    22:00 +14°C° 0 mm 5 mps 754 mmHg 73%
    23:00 +14°C° 0.1 mm 6 mps 754 mmHg 75%

    15 December, Saturday

    Time Temperature Precipitation Wind Pressure Humidity
    00:00 +14°C° 0.1 mm 6 mps 754 mmHg 76%
    01:00 +14°C° 0.1 mm 7 mps 754 mmHg 77%
    02:00 +12°C° 0.1 mm 8 mps 755 mmHg 77%
    03:00 +12°C° 0.1 mm 8 mps 755 mmHg 78%
    04:00 +12°C° 0.1 mm 8 mps 755 mmHg 78%
    05:00 +12°C° 0.1 mm 9 mps 755 mmHg 78%
    06:00 +12°C° 0.1 mm 9 mps 756 mmHg 78%
    07:00 +12°C° 0.1 mm 9 mps 756 mmHg 79%
    08:00 +13°C° 0.1 mm 10 mps 757 mmHg 73%
    09:00 +14°C° 0.1 mm 10 mps 758 mmHg 67%
    10:00 +17°C° 0.1 mm 11 mps 758 mmHg 62%
    11:00 +17°C° 0.1 mm 11 mps 758 mmHg 57%
    12:00 +18°C° 0.1 mm 11 mps 758 mmHg 52%
    13:00 +19°C° 0.1 mm 11 mps 758 mmHg 47%
    14:00 +19°C° 0 mm 11 mps 759 mmHg 48%
    15:00 +19°C° 0 mm 11 mps 759 mmHg 49%
    16:00 +19°C° 0 mm 10 mps 759 mmHg 49%
    17:00 +18°C° 0.1 mm 10 mps 760 mmHg 56%
    18:00 +17°C° 0.1 mm 9 mps 761 mmHg 64%
    19:00 +16°C° 0.1 mm 9 mps 761 mmHg 71%
    20:00 +15°C° 0.1 mm 8 mps 762 mmHg 73%
    21:00 +15°C° 0.1 mm 8 mps 762 mmHg 75%
    22:00 +15°C° 0.1 mm 8 mps 763 mmHg 77%
    23:00 +13°C° 0 mm 8 mps 763 mmHg 78%
    Show more